Fort Hood, TX

5:15 PM CDT on March 24, 2017 (GMT -0500)
Killeen-Fort Hood Regional

Weather History for KGRK - August, 2013

Change the Weather History Date:

Saturday, August 24, 2013

  Actual Average Record
Temperature  
Mean Temperature 88 °F -  
Max Temperature 98 °F 92 °F 102 °F (2010)
Min Temperature 78 °F 72 °F 69 °F (1997)
Cooling Degree Days 23    
Growing Degree Days 38 (Base 50)    
Moisture  
Dew Point 67 °F    
Average Humidity 52    
Maximum Humidity 74    
Minimum Humidity 32    
Precipitation  
Precipitation 0.00 in - - ()
Sea Level Pressure  
Sea Level Pressure 30.00 in    
Wind  
Wind Speed 7 mph (SE)    
Max Wind Speed 16 mph    
Max Gust Speed 22 mph    
Visibility 7 miles    
Events      
Averages and records for this station are not official NWS values.
T = Trace of Precipitation, MM = Missing Value Source: NWS Daily Summary

Daily Weather History Graph

Daily Weather History Graph

Search for Another Location

Airport or City:

Trip Planner

Search our weather history database for the weather conditions in past years. The results will help you decide how hot, cold, wet, or windy it might be!

Date:

Astronomy

Aug. 24, 2013 Rise Set
Actual Time 7:02 AM CDT 8:03 PM CDT
Civil Twilight 6:37 AM CDT 8:28 PM CDT
Nautical Twilight 6:08 AM CDT 8:58 PM CDT
Astronomical Twilight 5:37 AM CDT 9:28 PM CDT
Moon 10:20 PM CDT 10:44 AM CDT
Length of Visible Light 13h 50m
Length of Day
13h 00m
Waning Gibbous, 84% of the Moon is Illuminated
Aug 24
Waning Gibbous
Aug 28
Last Quarter
Sep 5
New
Sep 12
First Quarter
Sep 19
Full

Hourly Weather History & Observations

Time (CDT) Temp. Heat Index Dew Point Humidity Pressure Visibility Wind Dir Wind Speed Gust Speed Precip Events Conditions
12:55 AM 84.2 °F 86.6 °F 66.2 °F 55% 29.96 in 7.0 mi SE 8.1 mph - N/A   Partly Cloudy
1:55 AM 80.6 °F 82.7 °F 66.2 °F 61% 29.98 in 7.0 mi Calm Calm - N/A   Partly Cloudy
2:55 AM 82.4 °F 85.4 °F 68.0 °F 62% 29.98 in 7.0 mi South 9.2 mph - N/A   Partly Cloudy
3:55 AM 80.6 °F 83.2 °F 68.0 °F 65% 29.98 in 7.0 mi SSW 9.2 mph - N/A   Partly Cloudy
4:55 AM 78.8 °F - 68.0 °F 69% 29.99 in 7.0 mi South 5.8 mph - N/A   Partly Cloudy
5:55 AM 78.8 °F - 68.0 °F 69% 29.99 in 7.0 mi South 6.9 mph - N/A   Partly Cloudy
6:55 AM 78.8 °F - 68.0 °F 69% 30.01 in 7.0 mi South 5.8 mph - N/A   Scattered Clouds
7:55 AM 78.8 °F - 69.8 °F 74% 30.04 in 7.0 mi SSE 6.9 mph - N/A   Mostly Cloudy
8:55 AM 78.8 °F - 69.8 °F 74% 30.05 in 7.0 mi Calm Calm - N/A   Mostly Cloudy
9:55 AM 86.0 °F 90.4 °F 69.8 °F 58% 30.05 in 7.0 mi WSW 9.2 mph - N/A   Scattered Clouds
10:55 AM 89.6 °F 94.7 °F 69.8 °F 52% 30.06 in 7.0 mi Variable 3.5 mph - N/A   Partly Cloudy
11:55 AM 93.2 °F 98.8 °F 69.8 °F 46% 30.05 in 7.0 mi Calm Calm - N/A   Scattered Clouds
12:55 PM 96.8 °F 101.8 °F 68.0 °F 39% 30.03 in 7.0 mi ENE 6.9 mph - N/A   Mostly Cloudy
1:55 PM 98.6 °F 101.0 °F 64.4 °F 32% 29.99 in 7.0 mi NE 11.5 mph 16.1 mph N/A   Mostly Cloudy
2:55 PM 98.6 °F 101.0 °F 64.4 °F 32% 29.99 in 7.0 mi NNE 8.1 mph 16.1 mph N/A   Mostly Cloudy
3:55 PM 98.6 °F 101.0 °F 64.4 °F 32% 29.96 in 7.0 mi East 11.5 mph 21.9 mph N/A   Mostly Cloudy
4:55 PM 95.0 °F 99.5 °F 68.0 °F 41% 29.96 in 7.0 mi East 16.1 mph - N/A   Scattered Clouds
5:55 PM 93.2 °F 96.2 °F 66.2 °F 41% 29.95 in 7.0 mi ESE 6.9 mph - N/A   Scattered Clouds
6:55 PM 93.2 °F 96.2 °F 66.2 °F 41% 29.95 in 7.0 mi SE 6.9 mph - N/A   Scattered Clouds
7:55 PM 91.4 °F 93.2 °F 64.4 °F 41% 29.96 in 7.0 mi SE 5.8 mph - N/A   Scattered Clouds
8:55 PM 89.6 °F 91.1 °F 64.4 °F 43% 29.97 in 7.0 mi ESE 8.1 mph - N/A   Scattered Clouds
9:55 PM 87.8 °F 90.4 °F 66.2 °F 49% 30.00 in 7.0 mi East 5.8 mph - N/A   Partly Cloudy
10:55 PM 87.8 °F 90.4 °F 66.2 °F 49% 30.02 in 7.0 mi ESE 5.8 mph - N/A   Partly Cloudy
11:55 PM 86.0 °F 89.4 °F 68.0 °F 55% 30.03 in 7.0 mi East 6.9 mph - N/A   Partly Cloudy